Terminal Aerodrome Forecast
Issued by NWS Duluth, MN

Home | Current Version | Previous Version | Text Only | Print | Product List | Glossary On
Versions: 1 2 3 4 5 6 7 8 9 10 11 12 13 14 15 16 17 18 19 20 21 22 23 24 25 26 27 28 29 30 31 32
000
FTUS43 KDLH 281000 AAA
TAFDLH
TAF AMD
KDLH 281003Z 2810/2906 17011KT P6SM BKN009 OVC090
     FM281600 14008KT 6SM BR OVC007
     FM290500 30007KT 5SM BR VCSH OVC006=

USA.gov is the U.S. government's official web portal to all federal, state and local government web resources and services.